Location: Horowhenua
(40.7500°S, 175.3333°E)
Time: 05:33:28
(UTC+00:00)

Cosmos 1707 Rocket - Pass Details

Date: 28 January 2023
Orbit: 604 x 629 km, 82.5° (Epoch: 01 April)

Event Time Altitude Azimuth Distance (km) Brightness Sun altitude
Exits shadow 14:27:10 80° 118° (ESE) 655 3.6 -25.3°
Drops below altitude 10° 14:31:34 10° 170° (S) 2,046 7.1 -24.8°
Sets 14:33:50 0° 171° (S) 2,963 8.1 -24.6°
